Year,Month,Day,Hour,Minute,Value (Times are PST for insolation in W/m^2)
2013,03,19,00,00,0.00
2013,03,19,00,01,0.00
2013,03,19,00,02,0.00
2013,03,19,00,03,0.00
2013,03,19,00,04,0.00
2013,03,19,00,05,0.00
2013,03,19,00,06,0.00
2013,03,19,00,07,0.00
2013,03,19,00,08,0.00
2013,03,19,00,09,0.00
2013,03,19,00,10,0.00
2013,03,19,00,11,0.00
2013,03,19,00,12,0.00
2013,03,19,00,13,0.00
2013,03,19,00,14,0.00
2013,03,19,00,15,0.00
2013,03,19,00,16,0.00
2013,03,19,00,17,0.00
2013,03,19,00,18,0.00
2013,03,19,00,19,0.00
2013,03,19,00,20,0.00
2013,03,19,00,21,0.00
2013,03,19,00,22,0.00
2013,03,19,00,23,0.00
2013,03,19,00,24,0.00
2013,03,19,00,25,0.00
2013,03,19,00,26,0.00
2013,03,19,00,27,0.00
2013,03,19,00,28,0.00
2013,03,19,00,29,0.00
2013,03,19,00,30,0.00
2013,03,19,00,31,0.00
2013,03,19,00,32,0.00
2013,03,19,00,33,0.00
2013,03,19,00,34,0.00
2013,03,19,00,35,0.00
2013,03,19,00,36,0.00
2013,03,19,00,37,0.00
2013,03,19,00,38,0.00
2013,03,19,00,39,0.00
2013,03,19,00,40,0.00
2013,03,19,00,41,0.00
2013,03,19,00,42,0.00
2013,03,19,00,43,0.00
2013,03,19,00,44,0.00
2013,03,19,00,45,0.00
2013,03,19,00,46,0.00
2013,03,19,00,47,0.00
2013,03,19,00,48,0.00
2013,03,19,00,49,0.00
2013,03,19,00,50,0.00
2013,03,19,00,51,0.00
2013,03,19,00,52,0.00
2013,03,19,00,53,0.00
2013,03,19,00,54,0.00
2013,03,19,00,55,0.00
2013,03,19,00,56,0.00
2013,03,19,00,57,0.00
2013,03,19,00,58,0.00
2013,03,19,00,59,0.00
2013,03,19,01,00,0.00
2013,03,19,01,01,0.00
2013,03,19,01,02,0.00
2013,03,19,01,03,0.00
2013,03,19,01,04,0.00
2013,03,19,01,05,0.00
2013,03,19,01,06,0.00
2013,03,19,01,07,0.00
2013,03,19,01,08,0.00
2013,03,19,01,09,0.00
2013,03,19,01,10,0.00
2013,03,19,01,11,0.00
2013,03,19,01,12,0.00
2013,03,19,01,13,0.00
2013,03,19,01,14,0.00
2013,03,19,01,15,0.00
2013,03,19,01,16,0.00
2013,03,19,01,17,0.00
2013,03,19,01,18,0.00
2013,03,19,01,19,0.00
2013,03,19,01,20,0.00
2013,03,19,01,21,0.00
2013,03,19,01,22,0.00
2013,03,19,01,23,0.00
2013,03,19,01,24,0.00
2013,03,19,01,25,0.00
2013,03,19,01,26,0.00
2013,03,19,01,27,0.00
2013,03,19,01,28,0.00
2013,03,19,01,29,0.00
2013,03,19,01,30,0.00
2013,03,19,01,31,0.00
2013,03,19,01,32,0.00
2013,03,19,01,33,0.00
2013,03,19,01,34,0.00
2013,03,19,01,35,0.00
2013,03,19,01,36,0.00
2013,03,19,01,37,0.00
2013,03,19,01,38,0.00
2013,03,19,01,39,0.00
2013,03,19,01,40,0.00
2013,03,19,01,41,0.00
2013,03,19,01,42,0.00
2013,03,19,01,43,0.00
2013,03,19,01,44,0.00
2013,03,19,01,45,0.00
2013,03,19,01,46,0.00
2013,03,19,01,47,0.00
2013,03,19,01,48,0.00
2013,03,19,01,49,0.00
2013,03,19,01,50,0.00
2013,03,19,01,51,0.00
2013,03,19,01,52,0.00
2013,03,19,01,53,0.00
2013,03,19,01,54,0.00
2013,03,19,01,55,0.00
2013,03,19,01,56,0.00
2013,03,19,01,57,0.00
2013,03,19,01,58,0.00
2013,03,19,01,59,0.00
2013,03,19,02,00,0.00
2013,03,19,02,01,0.00
2013,03,19,02,02,0.00
2013,03,19,02,03,0.00
2013,03,19,02,04,0.00
2013,03,19,02,05,0.00
2013,03,19,02,06,0.00
2013,03,19,02,07,0.00
2013,03,19,02,08,0.00
2013,03,19,02,09,0.00
2013,03,19,02,10,0.00
2013,03,19,02,11,0.00
2013,03,19,02,12,0.00
2013,03,19,02,13,0.00
2013,03,19,02,14,0.00
2013,03,19,02,15,0.00
2013,03,19,02,16,0.00
2013,03,19,02,17,0.00
2013,03,19,02,18,0.00
2013,03,19,02,19,0.00
2013,03,19,02,20,0.00
2013,03,19,02,21,0.00
2013,03,19,02,22,0.00
2013,03,19,02,23,0.00
2013,03,19,02,24,0.00
2013,03,19,02,25,0.00
2013,03,19,02,26,0.00
2013,03,19,02,27,0.00
2013,03,19,02,28,0.00
2013,03,19,02,29,0.00
2013,03,19,02,30,0.00
2013,03,19,02,31,0.00
2013,03,19,02,32,0.00
2013,03,19,02,33,0.00
2013,03,19,02,34,0.00
2013,03,19,02,35,0.00
2013,03,19,02,36,0.00
2013,03,19,02,37,0.00
2013,03,19,02,38,0.00
2013,03,19,02,39,0.00
2013,03,19,02,40,0.00
2013,03,19,02,41,0.00
2013,03,19,02,42,0.00
2013,03,19,02,43,0.00
2013,03,19,02,44,0.00
2013,03,19,02,45,0.00
2013,03,19,02,46,0.00
2013,03,19,02,47,0.00
2013,03,19,02,48,0.00
2013,03,19,02,49,0.00
2013,03,19,02,50,0.00
2013,03,19,02,51,0.00
2013,03,19,02,52,0.00
2013,03,19,02,53,0.00
2013,03,19,02,54,0.00
2013,03,19,02,55,0.00
2013,03,19,02,56,0.00
2013,03,19,02,57,0.00
2013,03,19,02,58,0.00
2013,03,19,02,59,0.00
2013,03,19,03,00,0.00
2013,03,19,03,01,0.00
2013,03,19,03,02,0.00
2013,03,19,03,03,0.00
2013,03,19,03,04,0.00
2013,03,19,03,05,0.00
2013,03,19,03,06,0.00
2013,03,19,03,07,0.00
2013,03,19,03,08,0.00
2013,03,19,03,09,0.00
2013,03,19,03,10,0.00
2013,03,19,03,11,0.00
2013,03,19,03,28,0.00
2013,03,19,03,29,0.00
2013,03,19,03,30,0.00
2013,03,19,03,31,0.00
2013,03,19,03,32,0.00
2013,03,19,03,33,0.00
2013,03,19,03,34,0.00
2013,03,19,03,35,0.00
2013,03,19,03,36,0.00
2013,03,19,03,37,0.00
2013,03,19,03,38,0.00
2013,03,19,03,39,0.00
2013,03,19,03,40,0.00
2013,03,19,03,41,0.00
2013,03,19,03,42,0.00
2013,03,19,03,43,0.00
2013,03,19,03,44,0.00
2013,03,19,03,45,0.00
2013,03,19,03,46,0.00
2013,03,19,03,47,0.00
2013,03,19,03,48,0.00
2013,03,19,03,49,0.00
2013,03,19,03,50,0.00
2013,03,19,03,51,0.00
2013,03,19,03,52,0.00
2013,03,19,03,53,0.00
2013,03,19,03,54,0.00
2013,03,19,03,55,0.00
2013,03,19,03,56,0.00
2013,03,19,03,57,0.00
2013,03,19,03,58,0.00
2013,03,19,03,59,0.00
2013,03,19,04,00,0.00
2013,03,19,04,01,0.00
2013,03,19,04,02,0.00
2013,03,19,04,03,0.00
2013,03,19,04,04,0.00
2013,03,19,04,05,0.00
2013,03,19,04,06,0.00
2013,03,19,04,07,0.00
2013,03,19,04,08,0.00
2013,03,19,04,09,0.00
2013,03,19,04,10,0.00
2013,03,19,04,11,0.00
2013,03,19,04,12,0.00
2013,03,19,04,13,0.00
2013,03,19,04,14,0.00
2013,03,19,04,15,0.00
2013,03,19,04,16,0.00
2013,03,19,04,17,0.00
2013,03,19,04,18,0.00
2013,03,19,04,19,0.00
2013,03,19,04,20,0.00
2013,03,19,04,21,0.00
2013,03,19,04,22,0.00
2013,03,19,04,23,0.00
2013,03,19,04,24,0.00
2013,03,19,04,25,0.00
2013,03,19,04,26,0.00
2013,03,19,04,27,0.00
2013,03,19,04,28,0.00
2013,03,19,04,29,0.00
2013,03,19,04,30,0.00
2013,03,19,04,31,0.00
2013,03,19,04,32,0.00
2013,03,19,04,33,0.00
2013,03,19,04,34,0.00
2013,03,19,04,35,0.00
2013,03,19,04,36,0.00
2013,03,19,04,37,0.00
2013,03,19,04,38,0.00
2013,03,19,04,39,0.00
2013,03,19,04,40,0.00
2013,03,19,04,41,0.00
2013,03,19,04,42,0.00
2013,03,19,04,43,0.00
2013,03,19,04,44,0.00
2013,03,19,04,45,0.00
2013,03,19,04,46,0.00
2013,03,19,04,47,0.00
2013,03,19,04,48,0.00
2013,03,19,04,49,0.00
2013,03,19,04,50,0.00
2013,03,19,04,51,0.00
2013,03,19,04,52,0.00
2013,03,19,04,53,0.00
2013,03,19,04,54,0.00
2013,03,19,04,55,0.00
2013,03,19,04,56,0.00
2013,03,19,04,57,0.00
2013,03,19,04,58,0.00
2013,03,19,04,59,0.00
2013,03,19,05,00,0.00
2013,03,19,05,01,0.00
2013,03,19,05,02,0.00
2013,03,19,05,03,0.00
2013,03,19,05,04,0.00
2013,03,19,05,05,0.00
2013,03,19,05,06,0.00
2013,03,19,05,07,0.00
2013,03,19,05,08,0.00
2013,03,19,05,09,0.00
2013,03,19,05,10,0.00
2013,03,19,05,11,0.00
2013,03,19,05,12,0.00
2013,03,19,05,13,0.00
2013,03,19,05,14,0.00
2013,03,19,05,15,0.00
2013,03,19,05,16,0.00
2013,03,19,05,17,0.00
2013,03,19,05,18,0.00
2013,03,19,05,19,0.00
2013,03,19,05,20,0.00
2013,03,19,05,21,0.00
2013,03,19,05,22,0.00
2013,03,19,05,23,0.00
2013,03,19,05,24,0.00
2013,03,19,05,25,0.00
2013,03,19,05,26,0.00
2013,03,19,05,27,0.00
2013,03,19,05,28,0.00
2013,03,19,05,29,0.00
2013,03,19,05,30,0.00
2013,03,19,05,31,0.00
2013,03,19,05,32,0.00
2013,03,19,05,33,0.00
2013,03,19,05,34,0.00
2013,03,19,05,35,0.00
2013,03,19,05,36,0.00
2013,03,19,05,37,0.00
2013,03,19,05,38,0.00
2013,03,19,05,39,0.00
2013,03,19,05,40,0.00
2013,03,19,05,41,0.00
2013,03,19,05,42,0.00
2013,03,19,05,43,0.00
2013,03,19,05,44,0.00
2013,03,19,05,45,0.00
2013,03,19,05,46,0.00
2013,03,19,05,47,0.00
2013,03,19,05,48,0.00
2013,03,19,05,49,0.00
2013,03,19,05,50,0.00
2013,03,19,05,51,0.00
2013,03,19,05,52,0.00
2013,03,19,05,53,0.00
2013,03,19,05,54,0.00
2013,03,19,05,55,0.00
2013,03,19,05,56,0.00
2013,03,19,05,57,0.00
2013,03,19,05,58,0.00
2013,03,19,05,59,0.00
2013,03,19,06,00,0.00
2013,03,19,06,01,0.00
2013,03,19,06,02,0.00
2013,03,19,06,03,0.00
2013,03,19,06,04,0.00
2013,03,19,06,05,0.00
2013,03,19,06,06,0.00
2013,03,19,06,07,0.00
2013,03,19,06,08,0.00
2013,03,19,06,09,0.00
2013,03,19,06,10,0.00
2013,03,19,06,11,0.00
2013,03,19,06,12,0.00
2013,03,19,06,13,0.00
2013,03,19,06,14,0.00
2013,03,19,06,15,0.00
2013,03,19,06,16,0.00
2013,03,19,06,17,0.00
2013,03,19,06,18,0.00
2013,03,19,06,19,0.00
2013,03,19,06,20,0.00
2013,03,19,06,21,0.00
2013,03,19,06,22,0.00
2013,03,19,06,23,0.00
2013,03,19,06,24,0.00
2013,03,19,06,25,0.00
2013,03,19,06,26,0.00
2013,03,19,06,27,0.00
2013,03,19,06,28,0.00
2013,03,19,06,29,0.00
2013,03,19,06,30,0.00
2013,03,19,06,31,0.00
2013,03,19,06,32,0.00
2013,03,19,06,33,0.00
2013,03,19,06,34,0.00
2013,03,19,06,35,0.00
2013,03,19,06,36,0.00
2013,03,19,06,37,0.00
2013,03,19,06,38,0.00
2013,03,19,06,39,0.00
2013,03,19,06,40,0.00
2013,03,19,06,41,0.00
2013,03,19,06,42,0.00
2013,03,19,06,43,0.00
2013,03,19,06,44,0.00
2013,03,19,06,45,0.00
2013,03,19,06,46,0.00
2013,03,19,06,47,0.00
2013,03,19,06,48,0.00
2013,03,19,06,49,0.00
2013,03,19,06,50,0.00
2013,03,19,06,51,0.00
2013,03,19,06,52,0.00
2013,03,19,06,53,0.00
2013,03,19,06,54,0.00
2013,03,19,06,55,0.00
2013,03,19,06,56,0.00
2013,03,19,06,57,0.00
2013,03,19,06,58,0.00
2013,03,19,06,59,0.00
2013,03,19,07,00,0.00
2013,03,19,07,01,0.00
2013,03,19,07,02,0.00
2013,03,19,07,03,0.00
2013,03,19,07,04,0.00
2013,03,19,07,05,0.00
2013,03,19,07,06,0.00
2013,03,19,07,07,0.00
2013,03,19,07,08,0.00
2013,03,19,07,09,0.00
2013,03,19,07,10,0.00
2013,03,19,07,11,0.00
2013,03,19,07,12,0.00
2013,03,19,07,13,0.00
2013,03,19,07,14,0.00
2013,03,19,07,15,0.00
2013,03,19,07,16,0.00
2013,03,19,07,17,0.00
2013,03,19,07,18,0.00
2013,03,19,07,19,0.00
2013,03,19,07,20,0.00
2013,03,19,07,21,0.00
2013,03,19,07,22,0.00
2013,03,19,07,23,0.00
2013,03,19,07,24,0.00
2013,03,19,07,25,0.00
2013,03,19,07,26,0.00
2013,03,19,07,27,0.00
2013,03,19,07,28,0.00
2013,03,19,07,29,0.00
2013,03,19,07,30,0.00
2013,03,19,07,31,0.00
2013,03,19,07,32,0.20
2013,03,19,07,33,5.00
2013,03,19,07,34,5.00
2013,03,19,07,35,5.00
2013,03,19,07,36,5.00
2013,03,19,07,37,5.00
2013,03,19,07,38,5.70
2013,03,19,07,39,7.00
2013,03,19,07,40,7.00
2013,03,19,07,41,7.00
2013,03,19,07,42,7.00
2013,03,19,07,43,7.00
2013,03,19,07,44,8.60
2013,03,19,07,45,9.00
2013,03,19,07,46,10.90
2013,03,19,07,47,11.00
2013,03,19,07,48,11.00
2013,03,19,07,49,11.00
2013,03,19,07,50,11.00
2013,03,19,07,51,11.00
2013,03,19,07,52,11.00
2013,03,19,07,53,11.00
2013,03,19,07,54,11.00
2013,03,19,07,55,11.00
2013,03,19,07,56,11.60
2013,03,19,07,57,12.00
2013,03,19,07,58,12.00
2013,03,19,07,59,13.50
2013,03,19,08,00,14.00
2013,03,19,08,01,14.00
2013,03,19,08,02,14.00
2013,03,19,08,03,14.00
2013,03,19,08,04,14.00
2013,03,19,08,05,14.00
2013,03,19,08,06,14.60
2013,03,19,08,07,16.00
2013,03,19,08,08,16.00
2013,03,19,08,09,16.00
2013,03,19,08,10,17.10
2013,03,19,08,11,18.00
2013,03,19,08,12,18.70
2013,03,19,08,13,19.00
2013,03,19,08,14,19.00
2013,03,19,08,15,20.70
2013,03,19,08,16,22.80
2013,03,19,08,17,23.10
2013,03,19,08,18,25.10
2013,03,19,08,19,26.40
2013,03,19,08,20,28.50
2013,03,19,08,21,30.60
2013,03,19,08,22,32.40
2013,03,19,08,23,33.00
2013,03,19,08,24,34.00
2013,03,19,08,25,37.20
2013,03,19,08,26,39.60
2013,03,19,08,27,41.40
2013,03,19,08,28,45.00
2013,03,19,08,29,48.40
2013,03,19,08,30,52.50
2013,03,19,08,31,55.90
2013,03,19,08,32,58.00
2013,03,19,08,33,58.00
2013,03,19,08,34,58.80
2013,03,19,08,35,62.20
2013,03,19,08,36,63.00
2013,03,19,08,37,63.70
2013,03,19,08,38,65.90
2013,03,19,08,39,67.00
2013,03,19,08,40,67.00
2013,03,19,08,41,65.80
2013,03,19,08,42,65.00
2013,03,19,08,43,66.50
2013,03,19,08,44,68.60
2013,03,19,08,45,69.00
2013,03,19,08,46,69.00
2013,03,19,08,47,70.10
2013,03,19,08,48,72.00
2013,03,19,08,49,72.40
2013,03,19,08,50,74.70
2013,03,19,08,51,77.60
2013,03,19,08,52,79.80
2013,03,19,08,53,81.90
2013,03,19,08,54,83.00
2013,03,19,08,55,83.00
2013,03,19,08,56,81.80
2013,03,19,08,57,79.70
2013,03,19,08,58,80.50
2013,03,19,08,59,81.00
2013,03,19,09,00,79.30
2013,03,19,09,01,82.60
2013,03,19,09,02,84.00
2013,03,19,09,03,84.00
2013,03,19,09,04,85.30
2013,03,19,09,05,92.40
2013,03,19,09,06,98.60
2013,03,19,09,07,103.90
2013,03,19,09,08,108.70
2013,03,19,09,09,110.00
2013,03,19,09,10,106.30
2013,03,19,09,11,104.00
2013,03,19,09,12,104.00
2013,03,19,09,13,104.00
2013,03,19,09,14,100.80
2013,03,19,09,15,97.40
2013,03,19,09,16,91.30
2013,03,19,09,17,88.00
2013,03,19,09,18,88.70
2013,03,19,09,19,96.30
2013,03,19,09,20,103.70
2013,03,19,09,21,110.50
2013,03,19,09,22,115.50
2013,03,19,09,23,118.90
2013,03,19,09,24,122.40
2013,03,19,09,25,127.70
2013,03,19,09,26,133.10
2013,03,19,09,27,141.00
2013,03,19,09,28,145.50
2013,03,19,09,29,146.00
2013,03,19,09,30,146.00
2013,03,19,09,31,147.80
2013,03,19,09,32,151.00
2013,03,19,09,33,151.20
2013,03,19,09,34,153.90
2013,03,19,09,35,158.50
2013,03,19,09,36,159.40
2013,03,19,09,37,156.90
2013,03,19,09,38,152.40
2013,03,19,09,39,145.00
2013,03,19,09,40,139.90
2013,03,19,09,41,140.20
2013,03,19,09,42,141.70
2013,03,19,09,43,142.00
2013,03,19,09,44,142.00
2013,03,19,09,45,141.10
2013,03,19,09,46,139.10
2013,03,19,09,47,134.90
2013,03,19,09,48,131.80
2013,03,19,09,49,130.40
2013,03,19,09,50,133.20
2013,03,19,09,51,139.10
2013,03,19,09,52,145.50
2013,03,19,09,53,148.40
2013,03,19,09,54,152.00
2013,03,19,09,55,158.80
2013,03,19,09,56,163.90
2013,03,19,09,57,166.30
2013,03,19,09,58,167.00
2013,03,19,09,59,165.40
2013,03,19,10,00,160.70
2013,03,19,10,01,160.00
2013,03,19,10,02,163.30
2013,03,19,10,03,169.30
2013,03,19,10,04,172.40
2013,03,19,10,05,174.50
2013,03,19,10,06,177.40
2013,03,19,10,07,182.50
2013,03,19,10,08,186.30
2013,03,19,10,09,191.30
2013,03,19,10,10,201.50
2013,03,19,10,11,211.30
2013,03,19,10,12,224.00
2013,03,19,10,13,236.30
2013,03,19,10,14,239.00
2013,03,19,10,15,234.70
2013,03,19,10,16,211.30
2013,03,19,10,17,206.10
2013,03,19,10,18,210.50
2013,03,19,10,19,223.00
2013,03,19,10,20,237.60
2013,03,19,10,21,247.10
2013,03,19,10,22,260.80
2013,03,19,10,23,280.90
2013,03,19,10,24,304.50
2013,03,19,10,25,315.00
2013,03,19,10,26,310.70
2013,03,19,10,27,308.00
2013,03,19,10,28,308.00
2013,03,19,10,29,308.00
2013,03,19,10,30,308.00
2013,03,19,10,31,266.10
2013,03,19,10,32,254.90
2013,03,19,10,33,253.40
2013,03,19,10,34,256.70
2013,03,19,10,35,256.60
2013,03,19,10,36,262.00
2013,03,19,10,37,263.00
2013,03,19,10,38,265.00
2013,03,19,10,39,265.90
2013,03,19,10,40,268.00
2013,03,19,10,41,269.00
2013,03,19,10,42,266.30
2013,03,19,10,43,267.90
2013,03,19,10,44,269.00
2013,03,19,10,45,267.30
2013,03,19,10,46,260.30
2013,03,19,10,47,254.80
2013,03,19,10,48,249.40
2013,03,19,10,49,243.10
2013,03,19,10,50,238.30
2013,03,19,10,51,234.90
2013,03,19,10,52,231.30
2013,03,19,10,53,229.60
2013,03,19,10,54,228.00
2013,03,19,10,55,225.90
2013,03,19,10,56,225.00
2013,03,19,10,57,223.60
2013,03,19,10,58,221.60
2013,03,19,10,59,221.00
2013,03,19,11,00,220.10
2013,03,19,11,01,220.00
2013,03,19,11,02,220.00
2013,03,19,11,03,221.20
2013,03,19,11,04,223.70
2013,03,19,11,05,227.70
2013,03,19,11,06,230.60
2013,03,19,11,07,232.00
2013,03,19,11,08,232.00
2013,03,19,11,09,235.30
2013,03,19,11,10,240.10
2013,03,19,11,11,242.20
2013,03,19,11,12,243.00
2013,03,19,11,13,245.10
2013,03,19,11,14,249.10
2013,03,19,11,15,254.30
2013,03,19,11,16,261.40
2013,03,19,11,17,271.20
2013,03,19,11,18,276.30
2013,03,19,11,19,279.00
2013,03,19,11,20,280.00
2013,03,19,11,21,284.40
2013,03,19,11,22,288.00
2013,03,19,11,23,287.60
2013,03,19,11,24,283.20
2013,03,19,11,25,274.60
2013,03,19,11,26,267.10
2013,03,19,11,27,260.30
2013,03,19,11,28,257.30
2013,03,19,11,29,255.40
2013,03,19,11,30,255.00
2013,03,19,11,31,257.90
2013,03,19,11,32,260.00
2013,03,19,11,33,260.20
2013,03,19,11,34,262.40
2013,03,19,11,35,264.00
2013,03,19,11,36,264.00
2013,03,19,11,37,262.50
2013,03,19,11,38,258.70
2013,03,19,11,39,255.10
2013,03,19,11,40,251.90
2013,03,19,11,41,251.00
2013,03,19,11,42,253.70
2013,03,19,11,43,256.50
2013,03,19,11,44,261.00
2013,03,19,11,45,263.70
2013,03,19,11,46,268.50
2013,03,19,11,47,272.20
2013,03,19,11,48,276.70
2013,03,19,11,49,283.90
2013,03,19,11,50,290.10
2013,03,19,11,51,298.40
2013,03,19,11,52,304.70
2013,03,19,11,53,311.60
2013,03,19,11,54,315.00
2013,03,19,11,55,310.10
2013,03,19,11,56,301.70
2013,03,19,11,57,294.30
2013,03,19,11,58,289.10
2013,03,19,11,59,287.20
2013,03,19,12,00,287.00
2013,03,19,12,01,287.90
2013,03,19,12,02,292.20
2013,03,19,12,03,297.40
2013,03,19,12,04,302.30
2013,03,19,12,05,309.20
2013,03,19,12,06,315.00
2013,03,19,12,07,320.70
2013,03,19,12,08,321.10
2013,03,19,12,09,320.00
2013,03,19,12,10,321.10
2013,03,19,12,11,319.50
2013,03,19,12,12,321.30
2013,03,19,12,13,325.90
2013,03,19,12,14,327.00
2013,03,19,12,15,317.60
2013,03,19,12,16,309.60
2013,03,19,12,17,301.80
2013,03,19,12,18,296.80
2013,03,19,12,19,297.00
2013,03,19,12,20,311.70
2013,03,19,12,21,332.70
2013,03,19,12,22,339.70
2013,03,19,12,23,339.70
2013,03,19,12,24,339.40
2013,03,19,12,25,343.70
2013,03,19,12,26,348.50
2013,03,19,12,27,346.50
2013,03,19,12,28,338.50
2013,03,19,12,29,330.30
2013,03,19,12,30,323.90
2013,03,19,12,31,322.10
2013,03,19,12,32,318.00
2013,03,19,12,33,317.50
2013,03,19,12,34,311.40
2013,03,19,12,35,303.30
2013,03,19,12,36,301.00
2013,03,19,12,37,301.00
2013,03,19,12,38,298.40
2013,03,19,12,39,295.00
2013,03,19,12,40,295.00
2013,03,19,12,41,295.00
2013,03,19,12,42,295.00
2013,03,19,12,43,295.00
2013,03,19,12,44,295.00
2013,03,19,12,45,295.00
2013,03,19,12,46,290.50
2013,03,19,12,47,282.70
2013,03,19,12,48,275.50
2013,03,19,12,49,269.90
2013,03,19,12,50,264.80
2013,03,19,12,51,263.40
2013,03,19,12,52,261.30
2013,03,19,12,53,260.90
2013,03,19,12,54,263.40
2013,03,19,12,55,268.80
2013,03,19,12,56,273.20
2013,03,19,12,57,275.40
2013,03,19,12,58,277.40
2013,03,19,12,59,276.50
2013,03,19,13,00,272.60
2013,03,19,13,01,264.70
2013,03,19,13,02,256.50
2013,03,19,13,03,245.10
2013,03,19,13,04,235.70
2013,03,19,13,05,229.30
2013,03,19,13,06,226.40
2013,03,19,13,07,226.50
2013,03,19,13,08,230.20
2013,03,19,13,09,233.90
2013,03,19,13,10,233.80
2013,03,19,13,11,230.10
2013,03,19,13,12,225.00
2013,03,19,13,13,217.90
2013,03,19,13,14,214.40
2013,03,19,13,15,214.00
2013,03,19,13,16,215.80
2013,03,19,13,17,218.00
2013,03,19,13,18,217.80
2013,03,19,13,19,215.60
2013,03,19,13,20,213.80
2013,03,19,13,21,212.40
2013,03,19,13,22,209.20
2013,03,19,13,23,202.10
2013,03,19,13,24,193.70
2013,03,19,13,25,188.90
2013,03,19,13,26,191.10
2013,03,19,13,27,197.00
2013,03,19,13,28,201.20
2013,03,19,13,29,202.00
2013,03,19,13,30,199.40
2013,03,19,13,31,199.00
2013,03,19,13,32,199.00
2013,03,19,13,33,199.00
2013,03,19,13,34,199.00
2013,03,19,13,35,199.00
2013,03,19,13,36,199.00
2013,03,19,13,37,188.10
2013,03,19,13,38,171.10
2013,03,19,13,39,175.00
2013,03,19,13,40,173.80
2013,03,19,13,41,166.40
2013,03,19,13,42,162.30
2013,03,19,13,43,162.00
2013,03,19,13,44,160.40
2013,03,19,13,45,155.70
2013,03,19,13,46,149.50
2013,03,19,13,47,149.00
2013,03,19,13,48,147.30
2013,03,19,13,49,139.70
2013,03,19,13,50,132.60
2013,03,19,13,51,128.60
2013,03,19,13,52,131.90
2013,03,19,13,53,137.60
2013,03,19,13,54,140.00
2013,03,19,13,55,136.30
2013,03,19,13,56,130.30
2013,03,19,13,57,129.30
2013,03,19,13,58,132.90
2013,03,19,13,59,134.00
2013,03,19,14,00,130.60
2013,03,19,14,01,128.20
2013,03,19,14,02,130.10
2013,03,19,14,03,134.70
2013,03,19,14,04,141.70
2013,03,19,14,05,146.70
2013,03,19,14,06,149.60
2013,03,19,14,07,151.70
2013,03,19,14,08,154.30
2013,03,19,14,09,159.30
2013,03,19,14,10,167.90
2013,03,19,14,11,178.80
2013,03,19,14,12,185.00
2013,03,19,14,13,187.50
2013,03,19,14,14,185.60
2013,03,19,14,15,181.60
2013,03,19,14,16,179.20
2013,03,19,14,17,177.80
2013,03,19,14,18,173.70
2013,03,19,14,19,169.90
2013,03,19,14,20,161.20
2013,03,19,14,21,152.40
2013,03,19,14,22,146.00
2013,03,19,14,23,146.00
2013,03,19,14,24,146.00
2013,03,19,14,25,146.00
2013,03,19,14,26,146.00
2013,03,19,14,27,141.10
2013,03,19,14,28,142.60
2013,03,19,14,29,147.20
2013,03,19,14,30,148.90
2013,03,19,14,31,148.10
2013,03,19,14,32,145.80
2013,03,19,14,33,141.50
2013,03,19,14,34,136.50
2013,03,19,14,35,132.60
2013,03,19,14,36,126.60
2013,03,19,14,37,121.20
2013,03,19,14,38,115.90
2013,03,19,14,39,111.10
2013,03,19,14,40,106.40
2013,03,19,14,41,102.80
2013,03,19,14,42,100.70
2013,03,19,14,43,100.00
2013,03,19,14,44,103.20
2013,03,19,14,45,106.60
2013,03,19,14,46,110.60
2013,03,19,14,47,113.10
2013,03,19,14,48,116.00
2013,03,19,14,49,115.70
2013,03,19,14,50,113.80
2013,03,19,14,51,113.90
2013,03,19,14,52,117.30
2013,03,19,14,53,120.40
2013,03,19,14,54,120.50
2013,03,19,14,55,116.70
2013,03,19,14,56,109.70
2013,03,19,14,57,105.00
2013,03,19,14,58,101.10
2013,03,19,14,59,96.00
2013,03,19,15,00,93.30
2013,03,19,15,01,91.20
2013,03,19,15,02,89.90
2013,03,19,15,03,85.70
2013,03,19,15,04,83.00
2013,03,19,15,05,83.20
2013,03,19,15,06,84.60
2013,03,19,15,07,87.30
2013,03,19,15,08,90.00
2013,03,19,15,09,89.00
2013,03,19,15,10,87.00
2013,03,19,15,11,86.00
2013,03,19,15,12,88.70
2013,03,19,15,13,90.70
2013,03,19,15,14,94.20
2013,03,19,15,15,96.70
2013,03,19,15,16,97.00
2013,03,19,15,17,94.80
2013,03,19,15,18,90.90
2013,03,19,15,19,90.00
2013,03,19,15,20,90.20
2013,03,19,15,21,91.00
2013,03,19,15,22,90.60
2013,03,19,15,23,90.00
2013,03,19,15,24,90.00
2013,03,19,15,25,90.00
2013,03,19,15,26,88.80
2013,03,19,15,27,89.30
2013,03,19,15,28,90.70
2013,03,19,15,29,96.70
2013,03,19,15,30,104.00
2013,03,19,15,31,112.30
2013,03,19,15,32,120.20
2013,03,19,15,33,125.20
2013,03,19,15,34,126.60
2013,03,19,15,35,123.80
2013,03,19,15,36,118.00
2013,03,19,15,37,110.10
2013,03,19,15,38,101.60
2013,03,19,15,39,92.70
2013,03,19,15,40,85.30
2013,03,19,15,41,80.50
2013,03,19,15,42,79.00
2013,03,19,15,43,81.90
2013,03,19,15,44,88.70
2013,03,19,15,45,96.00
2013,03,19,15,46,103.40
2013,03,19,15,47,107.20
2013,03,19,15,48,110.80
2013,03,19,15,49,108.30
2013,03,19,15,50,103.80
2013,03,19,15,51,98.00
2013,03,19,15,52,90.50
2013,03,19,15,53,83.90
2013,03,19,15,54,80.00
2013,03,19,15,55,79.00
2013,03,19,15,56,81.40
2013,03,19,15,57,85.00
2013,03,19,15,58,88.90
2013,03,19,15,59,90.00
2013,03,19,16,00,90.00
2013,03,19,16,01,86.40
2013,03,19,16,02,86.00
2013,03,19,16,03,84.90
2013,03,19,16,04,73.60
2013,03,19,16,05,72.00
2013,03,19,16,06,72.00
2013,03,19,16,07,72.00
2013,03,19,16,08,71.20
2013,03,19,16,09,70.00
2013,03,19,16,10,69.50
2013,03,19,16,11,66.60
2013,03,19,16,12,63.00
2013,03,19,16,13,59.10
2013,03,19,16,14,56.40
2013,03,19,16,15,56.00
2013,03,19,16,16,56.00
2013,03,19,16,17,54.10
2013,03,19,16,18,54.00
2013,03,19,16,19,54.00
2013,03,19,16,20,54.00
2013,03,19,16,21,54.60
2013,03,19,16,22,55.30
2013,03,19,16,23,54.00
2013,03,19,16,24,54.00
2013,03,19,16,25,55.10
2013,03,19,16,26,57.20
2013,03,19,16,27,58.00
2013,03,19,16,28,59.40
2013,03,19,16,29,58.50
2013,03,19,16,30,56.30
2013,03,19,16,31,53.30
2013,03,19,16,32,50.80
2013,03,19,16,33,46.90
2013,03,19,16,34,45.60
2013,03,19,16,35,43.00
2013,03,19,16,36,39.70
2013,03,19,16,37,39.00
2013,03,19,16,38,39.00
2013,03,19,16,39,39.50
2013,03,19,16,40,40.00
2013,03,19,16,41,41.20
2013,03,19,16,42,43.30
2013,03,19,16,43,45.50
2013,03,19,16,44,46.80
2013,03,19,16,45,47.00
2013,03,19,16,46,48.80
2013,03,19,16,47,49.00
2013,03,19,16,48,48.80
2013,03,19,16,49,47.00
2013,03,19,16,50,46.80
2013,03,19,16,51,45.40
2013,03,19,16,52,43.30
2013,03,19,16,53,42.80
2013,03,19,16,54,45.00
2013,03,19,16,55,46.50
2013,03,19,16,56,48.20
2013,03,19,16,57,50.30
2013,03,19,16,58,52.50
2013,03,19,16,59,51.40
2013,03,19,17,00,49.30
2013,03,19,17,01,46.30
2013,03,19,17,02,46.00
2013,03,19,17,03,46.10
2013,03,19,17,04,47.30
2013,03,19,17,05,49.50
2013,03,19,17,06,51.00
2013,03,19,17,07,51.70
2013,03,19,17,08,53.00
2013,03,19,17,09,52.00
2013,03,19,17,10,48.80
2013,03,19,17,11,45.10
2013,03,19,17,12,42.70
2013,03,19,17,13,40.60
2013,03,19,17,14,40.00
2013,03,19,17,15,39.10
2013,03,19,17,16,37.20
2013,03,19,17,17,36.90
2013,03,19,17,18,34.80
2013,03,19,17,19,32.60
2013,03,19,17,20,29.50
2013,03,19,17,21,28.00
2013,03,19,17,22,27.30
2013,03,19,17,23,26.00
2013,03,19,17,24,26.00
2013,03,19,17,25,27.10
2013,03,19,17,26,28.00
2013,03,19,17,27,28.00
2013,03,19,17,28,29.50
2013,03,19,17,29,30.00
2013,03,19,17,30,30.00
2013,03,19,17,31,30.00
2013,03,19,17,32,30.00
2013,03,19,17,33,30.10
2013,03,19,17,34,31.70
2013,03,19,17,35,30.00
2013,03,19,17,36,30.00
2013,03,19,17,37,30.00
2013,03,19,17,38,30.00
2013,03,19,17,39,30.00